Location: Melbourne
(37.8666°S, 145.1333°E)
Time: 12:18:42
(UTC+10:00)

Daily predictions for brighter satellites

Satellite Brightness Start Highest point End
(mag) Time Altitude Azimuth Time Altitude Azimuth Time Altitude Azimuth
Cosmos 1812 3.1 18:16:55 10° NNE 18:20:40 44° E 18:24:27 10° SSE
YAOGAN 1 2.7 18:20:45 10° SSE 18:25:06 57° E 18:29:23 10° N
Cosmos 1536 Rocket 3.5 18:23:44 10° N 18:28:04 78° E 18:32:30 10° S
Cosmos 2360 4.2 18:23:27 10° SSW 18:29:14 84° ESE 18:34:57 10° NNE
SJ-12 4.0 18:25:42 10° SSE 18:29:49 60° E 18:33:52 10° N
Cosmos 1484 Rocket 4.2 18:27:49 10° SE 18:30:36 18° E 18:33:19 10° NE
MOS 1 4.3 18:29:01 10° SSE 18:34:47 83° ENE 18:40:28 10° NNW
Cosmos 1821 Rocket 4.3 18:28:38 10° S 18:34:59 75° W 18:41:10 10° N
Okean 1-7 Rocket 4.2 18:32:17 10° NNE 18:36:23 35° E 18:40:34 10° SSE
Cosmos 1605 Rocket 4.1 18:31:36 10° S 18:38:03 67° E 18:44:26 10° NNE
ATLAS 3B R/B 4.1 18:33:31 10° S 18:38:36 20° SE 18:43:17 12° E
ASTRO E2 4.5 18:36:44 10° NNW 18:39:49 21° NNE 18:42:52 10° ENE
IRIS 4.3 18:37:16 10° WSW 18:40:04 87° N 18:44:15 11° ENE
GEOS 3 Rocket 4.4 18:35:36 10° ENE 18:40:17 34° SE 18:45:02 10° SSW
Cosmos 1763 Rocket 3.5 18:36:51 10° SSW 18:42:13 80° ESE 18:47:27 10° NNE
COS B Rocket 3.4 18:41:11 10° N 18:44:23 66° W 18:48:03 10° S
Meteor 1-12 Rocket 4.2 18:41:40 10° S 18:47:25 86° E 18:53:06 10° N
Lacrosse 4 Rocket 2.6 18:45:21 10° S 18:48:39 23° SE 18:50:44 16° E
NOSS 3-1 (A) 4.2 18:46:01 10° NW 18:54:21 81° WSW 19:02:02 10° SSE
Cosmos 1339 Rocket 4.5 18:50:19 10° N 18:56:38 70° E 19:02:55 10° SSE
Cosmos 482 Debris 4.1 18:54:00 10° SW 18:59:02 80° NW 19:01:17 16° NE
Cosmos 1354 Rocket 4.4 18:56:45 10° NNW 19:02:03 69° WSW 19:07:24 10° SSE
Cosmos 968 Rocket 4.4 19:00:27 10° NNE 19:04:30 24° E 19:06:45 18° ESE
Blok-2BL 2.6 19:03:16 10° NNW 19:06:13 68° ENE 19:07:06 35° SE
Cosmos 2061 Rocket 4.4 19:01:11 10° S 19:07:22 44° ESE 19:13:26 10° NNE
SL-16 R/B 2.2 19:01:48 10° SSW 19:07:33 87° ESE 19:13:15 10° NNE
Cosmos 841 Rocket 3.9 19:02:22 10° SSW 19:07:40 69° WNW 19:12:55 10° N
CZ-4C R/B 4.2 19:07:28 10° S 19:09:20 11° SSE 19:10:56 10° SE
Cosmos 540 Rocket 3.7 19:05:53 10° S 19:10:57 48° ESE 19:15:24 13° NE
ISS -3.1 19:07:58 10° NW 19:11:15 72° SW 19:13:02 25° SE
ATLAS 2AS CENTAUR R/B 2.7 19:05:35 10° N 19:11:55 48° ENE 19:17:30 12° SE
Cosmos 1459 Rocket 4.1 19:06:44 10° S 19:12:43 48° E 19:18:34 10° NNE
CZ-2C R/B 3.0 19:08:09 10° S 19:13:02 63° WSW 19:18:02 10° NNW
Cosmos 1500 3.1 19:10:36 10° S 19:14:29 87° E 19:18:18 10° N
Cosmos 1980 Rocket 4.5 19:12:46 10° SW 19:17:21 26° WNW 19:21:56 10° NNW
Cosmos 2360 Rocket 2.6 19:12:37 10° S 19:17:59 41° ESE 19:20:37 26° ENE
SAR-Lupe-4 3.5 19:17:17 10° SSE 19:20:53 63° E 19:24:27 10° N
Cosmos 1975 4.0 19:17:57 10° SSW 19:21:56 46° W 19:25:52 10° NNW
ERBS 2.9 19:22:19 10° SSW 19:25:42 42° SE 19:25:42 42° SE
IDEFIX/ARIANE 42P 3.3 19:20:36 10° S 19:25:46 56° WSW 19:30:52 10° NNW
COSMOS 2441 4.3 19:21:48 10° SSE 19:26:45 88° ENE 19:31:39 10° NNW
Cosmos 332 Rocket 3.7 19:22:48 10° SSW 19:27:41 75° ESE 19:31:38 15° NNE
COSMOS 2455 4.1 19:24:11 10° S 19:28:47 22° SE 19:29:03 22° SE
Cosmos 44 2.8 19:24:48 10° NNW 19:29:04 76° ENE 19:31:16 28° SE
Cosmos 371 Rocket 3.4 19:24:52 10° S 19:29:40 52° ESE 19:31:17 36° ENE
MSX 3.9 19:24:13 10° SSE 19:30:04 85° WSW 19:35:51 10° NNW
SJ-6B 2.7 19:27:41 10° SSE 19:31:37 57° E 19:35:23 10° N
Cosmos 1833 4.2 19:29:07 10° NNW 19:34:55 88° ENE 19:40:48 10° SSE
Cosmos 2219 3.5 19:30:11 10° N 19:35:31 43° ENE 19:37:06 35° ESE
Cosmos 2219 Rocket 4.1 19:32:20 10° SSE 19:34:14 14° SE 19:34:14 14° SE
NOAA 12 4.2 19:30:45 10° SSE 19:36:00 53° E 19:41:09 10° N
ATLAS CENTAUR R/B 3.2 19:35:13 10° WSW 19:37:33 19° WNW 19:38:25 15° NW
Meteor 1-19 Rocket 4.2 19:36:16 10° N 19:41:51 84° W 19:47:35 10° S
Aureole 1 Rocket 3.7 19:41:12 10° S 19:46:17 63° ESE 19:48:51 36° NE
SEDSat Delta rocket 4.3 19:42:10 10° WNW 19:48:22 47° N 19:49:52 39° NE
Cosmos 2322 Rocket 3.7 19:47:25 10° SW 19:52:31 35° WNW 19:57:35 10° NNW
Abrixas 4.1 19:49:35 10° WNW 19:51:36 35° W 19:51:36 35° W
FALCON 9 R/B 4.2 19:31:12 10° NW 19:53:52 37° NNE 19:57:05 31° NE
SL-08 R/B 4.5 19:48:30 10° S 19:54:57 64° E 19:57:29 37° NNE
Cosmos 2123 Rocket 4.0 19:49:14 10° N 19:55:20 58° E 20:01:34 10° SSE
OAO 3 Rocket 3.3 19:51:11 10° W 19:56:04 64° N 19:56:18 63° NNE
Cosmos 1743 3.7 19:55:51 10° SSW 19:59:40 46° W 20:01:51 22° NNW
Cosmos 2237 Rocket 4.3 19:56:29 10° SSE 19:57:25 12° SSE 19:57:25 12° SSE
Cosmos 1802 Rocket 4.0 19:54:15 10° S 20:00:33 81° W 20:06:53 10° N
Cosmos 2322 3.6 19:55:51 10° SSW 20:01:38 89° SE 20:03:10 52° NNE
Meteor 2-4 Rocket 3.9 19:57:45 10° NNW 20:03:38 75° W 20:09:25 10° S
Atlas Centaur 2 4.1 19:59:54 10° WNW 20:04:20 19° NNW 20:06:40 15° N
Cosmos 2016 Rocket 3.8 19:58:23 10° S 20:04:36 90° W 20:08:49 22° N
Meteor 2-9 Rocket 4.2 20:00:43 10° S 20:06:41 86° E 20:08:18 50° NNE
Cosmos 1025 Rocket 4.3 20:03:14 10° NNW 20:07:17 39° WSW 20:11:22 10° S
Cosmos 2333 Rocket 4.1 20:05:03 10° S 20:06:47 16° SSE 20:06:47 16° SSE
Meteor 1-15 Rocket 4.2 20:08:20 10° S 20:14:17 88° E 20:14:58 71° NNE
COSMOS 2428 3.3 20:21:01 10° SSW 20:25:11 48° S 20:25:11 48° S
Lacrosse 4 Rocket 3.3 20:23:50 10° SW 20:27:10 27° WNW 20:27:10 27° WNW
CZ-3A R/B 3.6 20:17:28 10° SW 20:28:10 30° S 20:28:19 30° S
ATLAS 3B R/B 2.7 20:23:06 10° SSW 20:30:21 82° ESE 20:30:36 80° E
Cosmos 1864 Rocket 4.5 20:27:05 10° S 20:33:09 79° SW 20:33:09 79° SW
USA 184 4.3 20:27:21 10° SSW 20:35:03 66° ESE 21:09:39 10° NE
CZ-4C R/B 4.0 20:53:46 10° SSW 20:56:09 24° SSW 20:56:09 24° SSW
Cosmos 2360 Rocket 4.0 20:57:09 10° SW 21:01:41 25° WNW 21:02:28 25° WNW
ATLAS 2AS CENTAUR R/B 4.0 20:57:18 10° WNW 21:02:53 30° SW 21:05:02 25° SSW
COSMOS 2455 4.4 21:09:13 10° SSW 21:12:14 31° SW 21:12:14 31° SW
Cosmos 2219 Rocket 4.4 21:14:30 10° SSW 21:15:59 19° SSW 21:15:59 19° SSW
